Date String (YYYY-MM-DD hh:mm:ss) UTC,Instrument flags,Ambient pressure (hPa),Sample flow (lpm),Bypass flow (lpm),Sample temperature (°C),Ambient temperature (°C),ASC tube jacket temperature (°C),LED temperature (°C),Box temperature (°C),Sample RH (%),Span deviation,Mass concentration (μg/m³),Mass concentration (μg/m³),Mass concentration (μg/m³)
DateTimeUTC,F1_M11,P_M11,Q1_M11,Q2_M11,T1_M11,T2_M11,T3_M11,T4_M11,T5_M11,U1_M11,ZSPAN_M11,X2_M11,X0_M11,X1_M11
2022-04-13 14:00:00,,0820.0,5.00,0.00,21.9,22.6,00.0,30.9,23.8,07.3,0000.0,0006.55,0009.01,0006.12
2022-04-13 14:01:00,,0820.0,4.99,0.00,21.9,22.2,00.0,30.9,23.7,07.3,0000.0,0006.53,0009.00,0006.10
2022-04-13 14:02:00,,0819.9,4.98,0.00,21.9,21.8,00.0,30.9,23.6,07.3,0000.0,0006.53,0009.06,0006.07
2022-04-13 14:03:00,,0819.9,5.01,0.00,21.8,21.4,00.0,30.9,23.4,07.4,0000.0,0006.53,0009.02,0006.06
2022-04-13 14:04:00,,0819.9,5.00,0.00,21.8,21.1,00.0,30.9,23.3,07.4,0000.0,0006.52,0009.07,0006.05
2022-04-13 14:05:00,,0820.1,5.00,0.00,21.7,21.0,00.0,30.8,23.2,07.4,0000.0,0006.52,0009.55,0006.03
2022-04-13 14:06:00,,0820.2,5.00,0.00,21.6,20.8,00.0,30.8,23.2,07.4,0000.0,0006.51,0009.69,0006.01
2022-04-13 14:07:00,,0820.2,5.00,0.00,21.6,20.6,00.0,30.8,23.2,07.3,0000.0,0006.50,0009.86,0005.98
2022-04-13 14:08:00,,0820.1,5.00,0.00,21.6,20.4,00.0,30.7,23.1,07.3,0000.0,0006.47,0009.92,0005.93
2022-04-13 14:09:00,,0820.0,5.00,0.00,21.6,21.1,00.0,30.7,23.2,07.2,0000.0,0006.43,0009.81,0005.90
2022-04-13 14:10:00,,0820.0,5.01,0.00,21.8,22.5,00.0,30.8,23.6,07.3,0000.0,0006.43,0009.92,0005.87
2022-04-13 14:11:00,,0820.0,5.01,0.00,21.9,23.1,00.0,30.8,23.9,07.3,0000.0,0006.43,0010.03,0005.85
2022-04-13 14:12:00,,0820.2,4.99,0.00,21.9,22.6,00.0,30.8,23.8,07.3,0000.0,0006.43,0010.09,0005.81
2022-04-13 14:13:00,,0820.1,4.99,0.00,21.9,22.1,00.0,30.8,23.7,07.2,0000.0,0006.35,0009.97,0005.77
2022-04-13 14:14:00,,0819.9,5.01,0.00,21.9,21.7,00.0,30.8,23.5,07.3,0000.0,0006.25,0009.88,0005.70
2022-04-13 14:15:00,,0819.9,5.00,0.00,21.8,21.4,00.0,30.8,23.5,07.1,0000.0,0006.16,0009.69,0005.63
2022-04-13 14:16:00,,0819.9,5.00,0.00,21.8,21.2,00.0,30.8,23.4,07.1,0000.0,0006.02,0009.18,0005.54
2022-04-13 14:17:00,,0819.9,5.00,0.00,21.7,21.0,00.0,30.8,23.2,07.0,0000.0,0005.90,0008.94,0005.44
2022-04-13 14:18:00,,0819.9,5.00,0.00,21.6,20.9,00.0,30.8,23.1,06.9,0000.0,0005.76,0008.66,0005.35
2022-04-13 14:19:00,,0819.9,5.00,0.00,21.6,20.7,00.0,30.8,23.1,06.9,0000.0,0005.63,0008.86,0005.25
2022-04-13 14:20:00,,0819.9,5.00,0.00,21.5,20.6,00.0,30.7,23.1,06.9,0000.0,0005.56,0008.91,0005.16
2022-04-13 14:21:00,,0819.9,4.99,0.00,21.5,20.6,00.0,30.7,23.0,07.0,0000.0,0005.46,0008.78,0005.06
2022-04-13 14:22:00,,0819.9,5.01,0.00,21.5,21.4,00.0,30.7,23.2,07.1,0000.0,0005.34,0008.76,0004.96
2022-04-13 14:23:00,,0819.9,5.01,0.00,21.7,22.8,00.0,30.8,23.6,07.0,0000.0,0005.22,0009.15,0004.88
2022-04-13 14:24:00,,0819.8,4.99,0.00,21.9,23.1,00.0,30.8,23.8,06.9,0000.0,0005.13,0009.04,0004.80
2022-04-13 14:25:00,,0819.9,5.00,0.00,21.9,22.5,00.0,30.8,23.7,06.8,0000.0,0005.04,0008.90,0004.73
2022-04-13 14:26:00,,0819.8,4.99,0.00,21.8,22.0,00.0,30.8,23.6,06.9,0000.0,0005.00,0008.96,0004.66
2022-04-13 14:27:00,,0819.8,5.01,0.00,21.8,21.6,00.0,30.8,23.5,06.9,0000.0,0004.99,0008.94,0004.63
2022-04-13 14:28:00,,0819.8,5.00,0.00,21.7,21.3,00.0,30.8,23.3,06.9,0000.0,0005.01,0009.13,0004.63
2022-04-13 14:29:00,,0819.8,5.00,0.00,21.7,21.0,00.0,30.8,23.2,06.9,0000.0,0004.99,0009.13,0004.62
2022-04-13 14:30:00,,0819.8,5.00,0.00,21.6,20.7,00.0,30.7,23.1,07.0,0000.0,0005.00,0008.76,0004.62
2022-04-13 14:31:00,,0819.8,5.00,0.00,21.5,20.5,00.0,30.7,23.0,07.1,0000.0,0005.01,0008.72,0004.63
2022-04-13 14:32:00,,0819.8,5.00,0.00,21.5,20.4,00.0,30.7,23.0,07.1,0000.0,0005.02,0008.73,0004.64
2022-04-13 14:33:00,,0819.7,4.99,0.00,21.4,20.3,00.0,30.6,22.9,07.1,0000.0,0005.01,0008.52,0004.65
2022-04-13 14:34:00,,0819.6,5.00,0.00,21.4,20.8,00.0,30.6,23.0,07.2,0000.0,0005.02,0008.01,0004.64
2022-04-13 14:35:00,,0819.6,5.00,0.00,21.6,22.1,00.0,30.7,23.4,07.1,0000.0,0005.06,0008.14,0004.65
2022-04-13 14:36:00,,0819.7,5.01,0.00,21.7,22.8,00.0,30.7,23.6,07.1,0000.0,0005.08,0008.22,0004.66
2022-04-13 14:37:00,,0819.6,5.00,0.00,21.7,22.4,00.0,30.7,23.5,07.1,0000.0,0005.08,0008.17,0004.67
2022-04-13 14:38:00,,0819.5,4.99,0.00,21.7,21.9,00.0,30.7,23.3,07.1,0000.0,0005.08,0008.13,0004.68
2022-04-13 14:39:00,,0819.5,5.00,0.00,21.6,21.5,00.0,30.7,23.1,07.2,0000.0,0005.03,0007.88,0004.67
2022-04-13 14:40:00,,0819.6,5.00,0.00,21.5,21.1,00.0,30.7,23.0,07.3,0000.0,0005.07,0007.90,0004.69
2022-04-13 14:41:00,,0819.5,5.00,0.00,21.4,20.8,00.0,30.6,22.9,07.4,0000.0,0005.13,0008.03,0004.69
2022-04-13 14:42:00,,0819.5,4.99,0.00,21.3,20.5,00.0,30.6,22.7,07.3,0000.0,0005.14,0007.94,0004.71
2022-04-13 14:43:00,,0819.5,5.00,0.00,21.2,20.2,00.0,30.6,22.6,07.3,0000.0,0005.17,0007.95,0004.72
2022-04-13 14:44:00,,0819.5,5.00,0.00,21.2,20.6,00.0,30.5,22.7,07.4,0000.0,0005.19,0008.05,0004.73
2022-04-13 14:45:00,,0819.5,5.01,0.00,21.4,22.0,00.0,30.6,23.1,07.4,0000.0,0005.19,0008.19,0004.74
2022-04-13 14:46:00,,0819.5,5.01,0.00,21.6,22.9,00.0,30.6,23.4,07.4,0000.0,0005.22,0008.21,0004.76
2022-04-13 14:47:00,,0819.5,4.99,0.00,21.6,22.6,00.0,30.6,23.4,07.5,0000.0,0005.26,0008.25,0004.79
2022-04-13 14:48:00,,0819.5,5.00,0.00,21.6,22.2,00.0,30.6,23.3,07.6,0000.0,0005.28,0008.29,0004.80
2022-04-13 14:49:00,,0819.5,4.99,0.00,21.6,21.8,00.0,30.6,23.2,07.5,0000.0,0005.30,0008.34,0004.82
2022-04-13 14:50:00,,0819.5,5.01,0.00,21.5,21.4,00.0,30.6,23.2,07.5,0000.0,0005.35,0008.46,0004.86
2022-04-13 14:51:00,,0819.5,5.00,0.00,21.5,21.0,00.0,30.6,23.1,07.5,0000.0,0005.36,0008.41,0004.88
2022-04-13 14:52:00,,0819.5,5.00,0.00,21.4,20.7,00.0,30.6,23.0,07.5,0000.0,0005.33,0009.23,0004.91
2022-04-13 14:53:00,,0819.5,5.00,0.00,21.4,20.5,00.0,30.5,22.9,07.5,0000.0,0005.36,0009.72,0004.94
2022-04-13 14:54:00,,0819.4,5.00,0.00,21.3,20.3,00.0,30.5,22.8,07.6,0000.0,0005.36,0009.83,0004.96
2022-04-13 14:55:00,,0819.4,5.00,0.00,21.3,20.3,00.0,30.5,22.8,07.6,0000.0,0005.39,0009.78,0005.00
2022-04-13 14:56:00,,0819.4,4.99,0.00,21.3,20.3,00.0,30.5,22.8,07.6,0000.0,0005.43,0009.64,0005.03
2022-04-13 14:57:00,,0819.4,5.00,0.00,21.3,20.4,00.0,30.4,22.8,07.6,0000.0,0005.44,0009.59,0005.06
2022-04-13 14:58:00,,0819.4,5.00,0.00,21.3,20.5,00.0,30.4,22.9,07.6,0000.0,0005.46,0009.56,0005.07
2022-04-13 14:59:00,,0819.4,5.00,0.00,21.4,21.7,00.0,30.5,23.2,07.6,0000.0,0005.49,0009.55,0005.09
